Tracking 29932 objects as of 3-Dec-2024
HD Live streaming from Space Station
objects crossing your sky now

STARLINK-30570

Track STARLINK-30570 now!
10-day predictions
STARLINK-30570 is classified as:


NORAD ID: 58095
Int'l Code: 2023-160W
Perigee: 565.3 km
Apogee: 567.2 km
Inclination: 43.0 °
Period: 95.8 minutes
Semi major axis: 6937 km
RCS: Unknown
Launch date: October 18, 2023
Source: United States (US)
Launch site: AIR FORCE EASTERN TEST RANGE (AFETR)
Your satellite tracking list
Your tracking list is empty




NASA's NSSDC Master Catalog

Two Line Element Set (TLE):
1 58095U 23160W   24338.54120810 -.00000196  00000-0  57588-6 0  9996
2 58095  43.0019  65.6235 0001394 263.0991  96.9693 15.02533358 63556
Source of the keplerian elements: AFSPC